Monroe, LA

5:46 AM CDT on May 24, 2017 (GMT -0500)
Monroe Regional

Weather History for KMLU - February, 2013

Change the Weather History Date:

Sunday, February 10, 2013

  Actual Average Record
Temperature  
Mean Temperature 62 °F 49 °F  
Max Temperature 65 °F 60 °F 85 °F (1932)
Min Temperature 59 °F 38 °F 20 °F (1971)
Degree Days  
Heating Degree Days 3 16  
Month to date heating degree days 117 166  
Since 1 July heating degree days 1399 1647  
Cooling Degree Days 0 0  
Month to date cooling degree days 0 0  
Year to date cooling degree days 13 4  
Growing Degree Days 12 (Base 50)    
Moisture  
Dew Point 59 °F    
Average Humidity 88    
Maximum Humidity 97    
Minimum Humidity 78    
Precipitation  
Precipitation 1.87 in 0.15 in 2.69 in (1985)
Month to date precipitation 1.95 1.57  
Year to date precipitation 11.51 6.58  
Snow  
Snow 0.00 in - - ()
Month to date snowfall 0.0  
Since 1 July snowfall 0.3  
Snow Depth 0.00 in    
Sea Level Pressure  
Sea Level Pressure 29.88 in    
Wind  
Wind Speed 6 mph (South)    
Max Wind Speed 33 mph    
Max Gust Speed 41 mph    
Visibility 7 miles    
Events Fog , Rain , Thunderstorm    
T = Trace of Precipitation, MM = Missing Value Source: NWS Daily Summary

Daily Weather History Graph

Daily Weather History Graph

Search for Another Location

Airport or City:

Trip Planner

Search our weather history database for the weather conditions in past years. The results will help you decide how hot, cold, wet, or windy it might be!

Date:

Astronomy

Feb. 10, 2013 Rise Set
Actual Time 6:55 AM CST 5:49 PM CST
Civil Twilight 6:30 AM CST 6:15 PM CST
Nautical Twilight 6:01 AM CST 6:44 PM CST
Astronomical Twilight 5:32 AM CST 7:12 PM CST
Moon 6:49 AM CST (2/10) 6:35 PM CST (2/10)
Length of Visible Light 11h 45m
Length of Day
10h 54m
New Moon, 0% of the Moon is Illuminated
Feb 10
New Moon
Feb 17
First Quarter
Feb 25
Full
Mar 4
Last Quarter
Mar 11
New

Hourly Weather History & Observations

Time (CST) Temp. Dew Point Humidity Pressure Visibility Wind Dir Wind Speed Gust Speed Precip Events Conditions
12:44 AM 60.8 °F 55.4 °F 82% 30.00 in 9.0 mi SE 8.1 mph - N/A   Overcast
12:53 AM 60.1 °F 55.0 °F 83% 29.99 in 9.0 mi SSE 6.9 mph - N/A   Overcast
1:53 AM 60.8 °F 55.4 °F 82% 29.95 in 10.0 mi SE 5.8 mph 16.1 mph N/A   Overcast
2:53 AM 60.1 °F 55.0 °F 83% 29.92 in 9.0 mi SE 5.8 mph - N/A   Overcast
3:53 AM 61.0 °F 55.9 °F 83% 29.89 in 10.0 mi SSE 8.1 mph - N/A   Overcast
4:53 AM 61.0 °F 57.0 °F 87% 29.89 in 10.0 mi Variable 6.9 mph - N/A   Overcast
5:46 AM 62.6 °F 57.2 °F 82% 29.87 in 10.0 mi SSE 6.9 mph 19.6 mph N/A   Overcast
5:53 AM 62.1 °F 57.9 °F 86% 29.87 in 9.0 mi SSE 6.9 mph - N/A   Overcast
6:53 AM 63.0 °F 59.0 °F 87% 29.88 in 9.0 mi South 9.2 mph - N/A   Overcast
7:53 AM 63.0 °F 61.0 °F 93% 29.86 in 3.0 mi SSE 8.1 mph - 0.01 in Rain Rain
8:13 AM 62.6 °F 60.8 °F 94% 29.83 in 2.5 mi SSE 9.2 mph - 0.03 in Rain , Thunderstorm Rain
8:24 AM 62.6 °F 60.8 °F 94% 29.84 in 4.0 mi SSE 9.2 mph - 0.04 in Rain , Thunderstorm Light Rain
8:39 AM 62.6 °F 60.8 °F 94% 29.82 in 5.0 mi SSE 10.4 mph - 0.04 in Rain , Thunderstorm Light Rain
8:53 AM 63.0 °F 61.0 °F 93% 29.82 in 4.0 mi SSE 10.4 mph 18.4 mph 0.05 in Rain , Thunderstorm Light Rain
9:31 AM 64.4 °F 62.6 °F 94% 29.84 in 1.8 mi WNW 11.5 mph 17.3 mph 0.18 in Rain , Thunderstorm Heavy Thunderstorms and Rain
9:45 AM 62.6 °F 60.8 °F 94% 29.88 in 0.5 mi NW 19.6 mph 41.4 mph N/A Fog , Rain , Thunderstorm Heavy Thunderstorms and Rain
9:53 AM 63.0 °F 60.1 °F 90% 29.89 in 1.0 mi WNW 16.1 mph 24.2 mph 1.23 in Rain , Thunderstorm Heavy Thunderstorms and Rain
9:58 AM 62.6 °F 60.8 °F 94% 29.88 in 2.0 mi WNW 13.8 mph - 0.04 in Rain , Thunderstorm Heavy Thunderstorms and Rain
10:32 AM 62.6 °F 60.8 °F 94% 29.88 in 5.0 mi SSE 5.8 mph - 0.27 in Rain , Thunderstorm Thunderstorms and Rain
10:53 AM 62.1 °F 60.1 °F 93% 29.84 in 5.0 mi Calm Calm - 0.31 in Rain , Thunderstorm Thunderstorms and Rain
11:16 AM 60.8 °F 59.0 °F 94% 29.87 in 5.0 mi SSE 9.2 mph - 0.04 in Rain , Thunderstorm Thunderstorms and Rain
11:19 AM 60.8 °F 59.0 °F 94% 29.87 in 5.0 mi South 9.2 mph - 0.04 in Rain , Thunderstorm Rain
11:42 AM 60.8 °F 59.0 °F 94% 29.81 in 2.5 mi ESE 5.8 mph - 0.13 in Rain , Thunderstorm Heavy Rain
11:47 AM 60.8 °F 59.0 °F 94% 29.82 in 3.0 mi Variable 3.5 mph - 0.15 in Rain Heavy Rain
11:53 AM 61.0 °F 59.0 °F 93% 29.83 in 3.0 mi South 5.8 mph - 0.17 in Rain Rain
12:09 PM 60.8 °F 60.8 °F 100% 29.84 in 5.0 mi SSW 5.8 mph - 0.03 in Rain Rain
12:13 PM 60.8 °F 59.0 °F 94% 29.85 in 5.0 mi SSW 5.8 mph - 0.03 in Rain , Thunderstorm Light Rain
12:46 PM 60.8 °F 59.0 °F 94% 29.85 in 10.0 mi South 8.1 mph - 0.07 in Rain Light Rain
12:53 PM 61.0 °F 59.0 °F 93% 29.85 in 10.0 mi South 5.8 mph - 0.07 in   Overcast
1:04 PM 60.8 °F 59.0 °F 94% 29.86 in 10.0 mi SSW 5.8 mph - 0.00 in Rain Light Rain
1:53 PM 62.1 °F 60.1 °F 93% 29.84 in 10.0 mi SSE 4.6 mph - 0.02 in Rain Light Rain
2:53 PM 63.0 °F 60.1 °F 90% 29.84 in 10.0 mi Calm Calm - N/A   Overcast
3:40 PM 64.4 °F 59.0 °F 83% 29.86 in 10.0 mi South 4.6 mph - N/A   Overcast
3:53 PM 64.0 °F 60.1 °F 87% 29.86 in 10.0 mi SSE 5.8 mph - N/A   Overcast
4:00 PM 64.4 °F 60.8 °F 88% 29.86 in 10.0 mi South 6.9 mph - 0.01 in   Overcast
4:53 PM 63.0 °F 60.1 °F 90% 29.88 in 10.0 mi South 5.8 mph - 0.01 in   Overcast
5:53 PM 63.0 °F 60.1 °F 90% 29.89 in 10.0 mi Calm Calm - N/A   Overcast
6:53 PM 63.0 °F 60.1 °F 90% 29.91 in 10.0 mi SE 4.6 mph - N/A   Mostly Cloudy
7:53 PM 62.1 °F 60.1 °F 93% 29.95 in 10.0 mi West 5.8 mph - 0.00 in Rain , Thunderstorm Light Rain
8:23 PM 62.6 °F 60.8 °F 94% 29.95 in 10.0 mi Calm Calm - 0.00 in   Mostly Cloudy
8:53 PM 61.0 °F 59.0 °F 93% 29.95 in 10.0 mi South 3.5 mph - 0.00 in   Overcast
9:53 PM 60.8 °F 59.0 °F 94% 29.98 in 10.0 mi Calm Calm - N/A   Overcast
10:53 PM 60.1 °F 57.9 °F 93% 30.00 in 7.0 mi SW 4.6 mph - N/A   Partly Cloudy
11:53 PM 59.0 °F 57.0 °F 93% 30.00 in 10.0 mi North 3.5 mph - N/A   Partly Cloudy